This demonstration page uses our WeatherBlox Daily Observations layout. Learn more.

Left ArrowRight Arrow

41.55636, -103.73856

Hourly Observations for June 19, 2015

Temp ( °F °C ) Dew Point ( °F °C ) Humidity (%) Winds ( mph kmh ) Pressure ( in mb ) Visibility ( mi km ) Precip ( " mm )
12:53 am 00:53 Clear 62 16.7 60 15.6 93 93 ESE 15 24 29.94 1014 9 14.48406 0 0
1:53 am 01:53 Partly Cloudy 63 17.2 60 15.6 90 90 ESE 15 24 29.91 1013 9 14.48406 0 0
2:00 am 02:00 Mostly Cloudy 63 17 61 16 94 94 ESE 15 24 29.88 1012 9 14.48406 0 0
2:49 am 02:49 Cloudy 64 18 61 16 88 88 ESE 9 15 29.88 1012 10 16.0934 0 0
2:53 am 02:53 Cloudy 65 18.3 61 16.1 87 87 SE 10 17 29.89 1012 10 16.0934 0 0
3:53 am 03:53 Cloudy 66 18.9 62 16.7 87 87 SSE 12 19 29.87 1012 10 16.0934 0 0
4:53 am 04:53 Cloudy 66 18.9 62 16.7 87 87 SE 8 13 29.85 1011 10 16.0934 0 0
5:53 am 05:53 Cloudy 67 19.4 62 16.7 84 84 SE 8 13 29.85 1011 10 16.0934 0 0
6:53 am 06:53 Mostly Cloudy 69 20.6 63 17.2 81 81 SSE 12 19 29.83 1010 10 16.0934 0 0
7:53 am 07:53 Mostly Cloudy 73 22.8 64 17.8 74 74 S 9 15 29.81 1010 10 16.0934 0 0
8:06 am 08:06 Partly Cloudy 73 22.8 65 18.3 76 76 SSE 9 15 29.71 1006 10 16.0934 0 0
8:53 am 08:53 Sunny 76 24.4 65 18.3 69 69 SSE 13 20 29.79 1009 10 16.0934 0 0
9:53 am 09:53 Sunny 79 26.1 66 18.9 65 65 SE 7 11 29.79 1009 10 16.0934 0 0
10:53 am 10:53 Sunny 81 27.2 65 18.3 58 58 VRB 3 6 29.77 1008 10 16.0934 0 0
11:53 am 11:53 Sunny 86 30 62 16.7 45 45 VRB 3 6 29.76 1008 10 16.0934 0 0
12:53 pm 12:53 Sunny 88 31.1 62 16.7 42 42 VRB 5 7 29.73 1007 10 16.0934 0 0
1:53 pm 13:53 Sunny 90 32.2 61 16.1 38 38 undefined N/A 29.71 1006 10 16.0934 0 0
2:53 pm 14:53 Sunny 91 32.8 62 16.7 38 38 ESE 8 13 29.68 1005 10 16.0934 0 0
3:53 pm 15:53 Sunny 93 33.9 61 16.1 34 34 SE 13 20 29.65 1004 10 16.0934 0 0
4:53 pm 16:53 Sunny 93 33.9 61 16.1 34 34 SE 12 19 29.63 1003 10 16.0934 0 0
5:53 pm 17:53 Sunny 91 32.8 62 16.7 38 38 SSE 12 19 29.62 1003 10 16.0934 0 0
6:53 pm 18:53 Sunny 89 31.7 62 16.7 41 41 S 10 17 29.61 1003 10 16.0934 0 0
7:53 pm 19:53 Sunny 83 28.3 63 17.2 51 51 SE 8 13 29.6 1002 10 16.0934 0 0
8:53 pm 20:53 Clear 79 26.1 58 14.4 49 49 S 8 13 29.59 1002 10 16.0934 0 0
9:53 pm 21:53 Clear 79 26.1 52 11.1 39 39 SSW 10 17 29.59 1002 10 16.0934 0 0
10:53 pm 22:53 Clear 79 26.1 54 12.2 42 42 SSW 15 24 29.57 1001 10 16.0934 0 0
11:53 pm 23:53 Clear 82 27.8 50 10 33 33 W 9 15 29.57 1001 10 16.0934 0 0

Powered by AerisWeather